STARLINK-37599, 69360

Orbit data source: Space-Track

STARLINK-37599, 69360 is a payload satellite owned by SpaceX/Seattle (US) in LEO that was launched on Thu, 04 Jun 2026 UTC via an FALCON 9 launch vehicle from the Air Force Eastern Test Range (AFETR). Payload-class satellites include a variety of spacecraft equipped with specific instruments for various scientific and technological missions. These include communications satellites like Starlink; space stations such as the ISS; scientific satellites like the Hubble; Earth observation satellites from companies like Planet Labs, Umbra, and HawkEye 360; GPS; miniature CubeSats for education and research; and military/defense satellites.

Loading next visibility...
Identifier
69360, 2026-123H
Orbit
LEO
Country
Flag of USUS
Related business
Manufacturer
SpaceX/Seattle
Mission
Operational spacecraft
Bus & Motor
STARLINK V2MO, Unknown motor
Mass
575 kg wet, ~530 kg dry
Launch date (UTC)
2026-06-04 (2 months ago)
Launch vehicle
FALCON 9
Launch site
Air Force Eastern Test Range (AFETR)
Object type
Payload
Rocket body
Debris
Shape & HBR
BOX + PAN, 17.7 m
Radar Cross Section
Large (>1 m²)

Expand to show TLE details & history
Last TLE update: 10 hours ago

TLE from 10 hours ago
0 STARLINK-37599
1 69360U 26123H   26207.58335648 -.02327876  00000-0 -29774-1 0  9994
2 69360  53.1599  44.9997 0001357  95.7452  97.3776 15.61976395  5813
Epoch: 2026-07-26T14:00Z
TLE epoch observation values (Epoch: 2026-07-26T14:00:01.999Z)
Latitude
-10.62371°
Longitude
78.74505°
Altitude
384.961 km
Speed
7.68 km/s
True Right ascension
15h 32m 07s
True Declination
-10° 33' 29"
Sunlit
Object was in partial shadow at epoch
Visualization orbit readout
Latitude
Unknown
Longitude
Unknown
Altitude
Unknown
Speed
Unknown
Apparent Right ascension
Unknown
Apparent Declination
Unknown
Sunlit
N/A
Visualization observer readout
Local Sidereal Time
13:11:15
Azimuth
Unknown
Elevation
Unknown
Doppler factor
Unknown
Orbital elements
Apogee altitude
383.126 km
Perigee altitude
381.291 km
Semi-major axis
6,760.345 km
Eccentricity
0.00014
Inclination
53.1599°
RAAN
44.9997°
Arg. of periapsis
95.7452°
True anomaly
97.39302°
Mean anomaly
97.3776°
Eccentric anomaly
97.38531°
Mean motion
3.90472 °/min
Orbital period
92.2 mins
BSTAR
-0.029774
Loading maneuver chart data...
Computing Atmospheric mass density...
Loading historical data...
Loading historical data...
Loading historical data...
Loading historical data...
Loading historical data...
Loading historical data...
Loading historical data...

Documentation

Showing up to 5 results
|